Regional Weather Roundup
Issued by NWS Green Bay, WI

Home | Current Version | Previous Version | Graphics & Text | Print | Product List | Glossary Off
Versions: 1 2 3 4 5 6 7 8 9 10 11 12 13 14 15 16 17 18 19 20 21 22 23 24 25 26 27 28 29 30 31 32 33 34 35 36 37 38 39 40 41 42 43 44 45 46 47 48 49 50

217
ASUS43 KGRB 230000
RWRGRB

NORTH-CENTRAL AND NORTHEAST WISCONSIN REGIONAL WEATHER ROUNDUP
NATIONAL WEATHER SERVICE GREEN BAY WI
700 PM CDT WED MAR 22 2017

WIZ005-009-010>012-018-019-230100-
NORTH CENTRAL WISCONSIN

CITY           SKY/WX    TMP DP  RH WIND       PRES   REMARKS
IRONWOOD       CLEAR     35   4  27 S7        30.37F
MANITOWISH WTR NOT AVBL
ARBOR VITAE    NOT AVBL
EAGLE RIVER    NOT AVBL
LAND O LAKES   NOT AVBL
RHINELANDER    CLEAR     33   5  30 S7        30.39F
PHILLIPS       CLOUDY    32   9  38 S8        30.38S
ANTIGO         NOT AVBL
TOMAHAWK       NOT AVBL
MERRILL        NOT AVBL
$$

WIZ013-073-230100-
NORTHEAST WISCONSIN

CITY           SKY/WX    TMP DP  RH WIND       PRES   REMARKS
IRON MOUNTAIN  CLEAR     31   5  33 SE8       30.42F
MARINETTE        N/A    N/A N/A N/A MISG        N/A
$$

WIZ017-030-035>037-045-230100-
CENTRAL WISCONSIN

CITY           SKY/WX    TMP DP  RH WIND       PRES   REMARKS
MEDFORD        NOT AVBL
WAUSAU         CLEAR     32   7  35 S8        30.41F
MOSINEE        MOCLDY    30  10  43 S6        30.43F
MARSHFIELD     PTCLDY    33  10  38 S8        30.40F
WISC RAPIDS    CLOUDY    35   7  31 SE6       30.44F
STEVENS POINT  NOT AVBL
WAUPACA        NOT AVBL
SHAWANO        NOT AVBL
CLINTONVILLE   CLEAR     32  12  43 S9        30.48F
WAUTOMA        PTCLDY    34  14  43 SE8       30.47F
$$

WIZ038-039-048-051-230100-
FOX VALLEY

CITY           SKY/WX    TMP DP  RH WIND       PRES   REMARKS
NWS GREEN BAY  PTCLDY    33  21  61 S9        30.50F
APPLETON       MOCLDY    30  14  51 VRB5      30.47F
OSHKOSH        CLEAR     31  19  61 E3        30.48F
FOND DU LAC    CLEAR     33  18  53 SE10      30.48F
$$

WIZ022-050-052-230100-
EAST CENTRAL WISCONSIN

CITY           SKY/WX    TMP DP  RH WIND       PRES   REMARKS
EPHRAIM        NOT AVBL
WASHINGTON ISL NOT AVBL
STURGEON BAY   CLOUDY    25  16  68 SE7       30.53F
MANITOWOC      NOT AVBL
SHEBOYGAN      CLEAR     26  16  65 E5        30.53S
$$

LMZ563-521-522-541>543-230100-
LAKESHORE

STATION/POSITION TIME  TEMP    WIND        PRES    VSBY  WAVE
                       AIR SEA DIR/SP/G                  HT/PER
                 (UTC) (F)     (DEG/KT/KT) (MB)    (MI)  (FT/S)
SHEBOYGAN LKSHOR 2300   26      70/  6/  8 1035.1F
KEWAUNEE LKSHORE 2330   26     160/  2/  6 1033.5S
NORTHPORT PIER   2340   25     150/  2/  6 1033.5F
CHAMBERS ISLAND  2340   27     110/  3/  5 1032.8F
MENOMINEE LKSHOR 2330   27     120/  6/  7 1032.7F
$$




USA.gov is the U.S. government's official web portal to all federal, state and local government web resources and services.